Theta_e
342 341 342 343 344 345 345 345 345 345 345 346 347 347 348 348 347 347 347 347 347 347 346 347 346 345 345 344 344 343 343 343 342 341 338 334 334 338 340 340 340 341 341 341 340 340 339 338 338 338 337 336 336 335 335 336 336 336 335 334 334 334 334 334 334 334 335 336 336 336 337 336 335 333 333 333 335 336 336 337 336 335 334 333 333
343 343 344 345 345 345 346 346 346 346 346 346 346 347 348 348 347 347 347 347 346 346 347 347 347 346 345 344 343 343 343 343 343 342 341 338 335 336 339 339 339 340 341 341 341 341 341 340 340 339 338 337 336 336 335 335 335 336 335 335 335 335 335 334 334 334 334 335 335 335 336 335 335 334 335 335 335 335 334 334 334 333 333 334 334
344 344 345 346 346 346 347 347 346 346 346 346 346 347 347 347 347 347 347 348 346 346 347 347 346 346 345 343 342 342 342 342 342 343 342 340 338 337 338 339 339 339 340 341 340 341 341 341 341 341 340 338 337 337 336 336 335 335 335 335 336 336 335 335 335 335 335 335 335 335 335 335 335 334 333 333 333 333 333 334 334 335 336 337 337
346 345 346 346 346 346 346 346 347 347 347 348 348 348 347 346 346 347 347 347 346 345 346 346 346 345 343 342 341 341 341 341 342 342 343 342 340 339 338 339 340 340 340 340 339 340 341 341 341 341 341 339 339 338 338 337 337 336 335 335 335 335 335 335 334 334 334 334 334 333 333 333 333 332 332 332 333 335 335 336 337 337 337 338 338
345 345 346 346 346 346 345 346 347 348 348 348 348 347 347 346 346 346 346 346 344 344 345 344 344 343 342 341 341 340 340 341 342 342 342 342 341 340 340 339 339 340 341 341 339 339 339 340 341 341 341 339 340 339 339 338 338 338 337 336 336 337 337 336 335 334 333 333 333 333 333 333 334 335 335 336 337 337 338 338 338 337 337 338 338
345 345 345 345 346 346 347 347 347 347 347 346 347 346 346 347 347 346 346 345 343 343 343 343 343 342 341 341 341 341 340 341 342 342 342 341 340 341 341 339 338 338 339 340 340 338 338 339 340 340 340 340 340 341 341 340 339 339 338 338 338 338 338 338 337 336 335 335 335 335 335 336 336 337 338 338 338 338 338 339 338 338 338 338 338
347 346 346 346 345 345 347 348 348 348 346 346 348 348 346 347 347 345 345 344 343 343 343 343 342 342 341 341 341 341 341 341 341 342 342 340 340 340 341 340 336 335 337 338 339 339 338 339 340 340 340 340 340 341 341 341 341 340 340 340 339 339 339 339 339 339 338 338 338 338 337 337 338 338 338 338 339 339 339 339 339 339 339 339 338
348 347 346 346 345 345 346 347 348 348 347 346 348 349 348 347 347 346 344 344 343 343 342 342 341 341 340 340 341 340 340 341 342 342 342 341 340 340 341 340 337 334 334 335 336 336 338 339 340 340 340 340 341 341 341 341 341 341 341 341 341 341 340 339 339 340 340 339 339 339 339 339 339 339 339 339 339 339 339 339 339 339 337 337 337
348 348 346 347 346 345 345 346 347 347 346 346 347 348 349 348 347 345 344 343 343 342 342 341 341 341 340 340 340 339 339 341 342 343 343 342 340 340 341 341 339 336 333 333 333 334 336 337 339 340 340 340 340 340 340 341 341 341 342 342 341 341 341 340 340 340 340 340 340 339 339 339 339 339 338 338 339 339 339 338 336 334 331 330 330
346 347 346 346 347 346 346 346 346 346 346 346 347 348 348 348 346 344 344 344 344 343 342 341 341 341 339 340 340 339 340 342 342 344 344 343 342 342 341 341 340 338 336 335 335 335 335 336 338 339 340 340 340 340 340 339 340 340 341 341 341 341 341 341 341 341 340 340 339 339 339 338 338 338 338 338 338 336 335 332 328 325 323 323 323
342 344 345 345 346 346 346 346 346 346 346 346 346 347 348 346 345 344 343 343 343 342 341 340 340 338 336 338 339 339 341 342 343 345 345 343 343 342 342 340 339 339 339 339 338 337 337 337 337 337 338 339 340 340 340 340 340 339 339 339 340 341 340 340 341 340 340 340 339 339 338 338 338 338 337 335 333 329 326 323 320 319 318 318 317
341 340 341 342 344 344 345 347 347 346 346 346 345 347 349 347 345 344 343 343 342 341 339 339 338 335 335 337 339 339 340 342 344 345 345 344 343 342 342 341 340 340 340 340 339 338 339 338 338 337 337 336 337 338 338 339 339 338 338 338 339 340 340 340 341 341 340 339 338 338 337 335 335 334 331 328 324 322 320 318 317 316 315 315 314
344 341 339 339 341 342 343 346 347 347 347 346 346 347 349 349 347 344 343 343 341 340 338 338 338 336 335 337 339 339 340 342 345 344 344 343 343 342 342 342 341 341 341 340 339 339 339 338 338 338 338 336 335 335 335 336 336 337 337 337 338 340 339 339 340 340 339 339 338 336 333 329 327 325 323 320 318 317 316 315 314 314 313 314 314
346 343 340 339 338 339 341 343 346 348 348 346 346 347 348 348 346 344 343 342 340 339 337 337 338 336 335 337 339 339 339 341 344 344 344 343 343 343 343 342 342 341 340 339 338 339 339 338 336 336 336 334 333 334 335 336 335 335 334 334 335 336 337 338 338 337 337 338 336 331 326 323 321 319 318 316 315 314 314 314 314 314 315 315 316
346 344 342 340 338 338 339 341 344 348 349 347 346 347 348 347 346 344 343 342 340 338 337 337 337 336 337 338 339 340 339 339 342 344 344 344 343 343 343 343 342 339 339 339 339 340 340 336 330 330 330 328 328 329 332 334 336 334 333 332 331 331 333 335 335 335 335 333 329 324 321 319 317 316 315 314 314 314 315 315 316 316 317 317 318
345 344 342 340 338 338 339 341 342 346 348 347 346 346 348 347 346 345 343 342 341 338 337 338 338 337 338 338 338 339 338 338 341 343 343 343 343 342 342 342 342 339 338 339 339 341 340 333 328 327 326 325 325 325 326 329 333 335 334 332 331 330 330 331 331 330 328 326 323 320 318 316 315 315 315 315 316 317 317 318 318 318 319 320 320
345 345 343 341 339 338 338 340 341 343 345 346 346 346 347 347 346 345 343 341 341 338 336 338 339 339 339 339 338 338 338 337 340 343 342 343 343 342 341 342 341 339 339 338 337 338 336 332 331 329 327 326 326 325 324 324 326 330 334 332 329 329 329 328 326 325 323 322 320 317 316 315 316 316 317 318 319 319 319 319 320 320 320 321 321
346 346 345 343 340 338 338 339 341 342 343 344 345 347 347 346 346 345 343 340 338 338 336 337 339 339 339 339 338 339 340 339 340 341 342 342 343 342 340 340 340 340 341 340 337 335 334 334 335 333 331 331 329 327 326 324 323 325 329 328 325 325 327 325 323 321 320 319 317 317 317 317 318 319 320 320 320 320 320 320 321 321 321 321 321
345 347 347 345 341 339 338 338 339 340 341 342 344 346 347 347 346 346 344 340 338 338 336 336 337 338 339 341 340 341 343 343 341 340 341 341 341 342 341 339 339 340 341 340 338 336 336 337 337 336 336 335 333 330 327 326 324 322 323 322 321 322 322 321 319 318 318 317 317 318 319 320 320 321 321 321 321 321 321 321 321 321 321 321 320
345 347 347 346 344 342 339 337 337 339 340 341 342 345 346 346 346 346 345 342 339 338 337 337 338 338 340 341 341 342 344 343 341 339 340 340 340 341 341 340 340 340 340 340 339 337 337 338 338 338 338 337 335 333 330 328 326 323 321 321 320 320 320 319 318 317 317 318 319 320 321 321 321 321 320 320 320 320 320 321 321 321 320 320 320
343 345 347 346 345 344 340 337 336 338 340 340 341 344 345 345 345 346 345 343 339 337 337 338 339 339 339 340 341 343 345 343 339 339 340 340 340 340 340 340 340 339 339 339 339 338 338 338 338 338 338 338 337 335 332 329 328 325 323 322 321 321 320 319 318 318 318 319 320 321 321 321 321 321 321 320 320 320 320 320 320 320 320 321 321
342 343 345 345 345 344 341 338 337 338 339 339 340 343 345 345 345 346 346 344 340 337 337 337 338 338 338 339 340 343 345 344 340 339 340 340 340 340 340 340 339 339 339 339 339 339 339 339 338 338 338 338 338 337 334 331 329 327 325 324 323 322 321 320 319 319 319 320 320 321 321 322 322 322 321 321 321 320 320 320 321 321 321 322 321
342 342 343 343 344 343 341 339 339 338 339 339 340 343 345 345 345 346 346 345 343 340 338 338 338 338 338 338 340 342 344 344 342 341 340 340 340 339 339 339 339 338 339 339 339 339 339 339 339 338 338 338 338 338 337 335 332 329 327 327 326 325 324 322 321 320 320 320 321 321 321 322 323 322 322 322 322 321 321 321 321 322 322 322 322
340 341 341 341 342 341 339 339 339 339 339 339 339 343 345 344 344 345 346 346 344 342 340 340 341 340 338 337 338 340 340 341 343 344 343 341 341 341 340 339 339 337 338 339 339 339 339 339 339 339 339 338 338 338 338 338 336 334 332 331 330 329 328 326 324 323 322 321 321 321 322 323 323 323 323 323 322 322 322 322 322 323 322 322 322
339 338 338 339 340 340 338 337 338 339 339 339 339 342 344 345 344 344 345 345 345 344 342 341 341 340 338 338 338 338 337 337 340 343 343 340 340 341 340 339 338 337 337 338 338 337 337 337 337 338 338 338 338 338 338 338 338 337 335 335 334 333 332 330 328 326 325 324 323 323 323 323 324 324 324 324 324 324 324 323 324 323 323 323 323
337 337 336 337 338 339 338 337 338 338 339 339 338 340 343 345 345 344 345 345 345 346 344 343 341 340 340 339 338 337 336 337 339 341 341 338 337 339 340 339 338 336 336 337 336 334 333 334 335 336 337 337 337 338 337 337 337 337 337 336 335 335 334 333 332 330 329 327 325 325 325 325 325 325 325 325 325 326 325 325 325 324 324 324 324
337 336 336 336 336 336 336 335 337 338 338 339 338 339 341 344 345 344 344 345 345 345 345 344 342 341 340 340 339 336 334 336 338 339 338 337 337 339 339 339 338 337 336 335 334 332 331 332 333 333 334 335 336 337 337 336 336 337 337 336 335 335 335 335 335 334 333 331 329 328 327 327 326 326 326 326 327 327 327 326 326 325 325 325 325
337 337 337 336 336 336 335 334 335 337 338 338 338 338 340 342 344 344 343 344 344 344 345 344 343 342 342 342 340 337 334 333 334 336 335 334 335 336 338 339 339 338 336 334 331 329 329 329 330 330 331 332 333 334 335 335 335 335 336 336 335 335 335 335 336 336 335 335 333 331 330 329 328 328 327 327 327 327 327 327 326 326 326 325 325
336 337 337 337 336 336 335 334 334 335 337 338 338 338 338 340 342 343 343 343 344 344 344 344 344 343 343 343 341 340 337 334 333 333 333 331 331 332 335 337 339 339 338 336 331 328 328 328 329 329 329 330 331 332 332 333 334 334 335 335 335 335 336 336 336 336 336 336 336 335 333 332 330 329 328 328 327 327 327 327 326 325 325 325 325
336 336 337 337 336 336 335 334 334 335 336 337 338 337 338 338 339 340 341 342 342 342 343 343 344 344 343 342 341 340 340 338 336 335 335 333 331 329 331 334 336 337 338 337 333 328 328 328 329 329 329 329 329 329 330 330 332 334 334 334 335 335 335 336 336 336 336 336 336 336 336 335 333 330 329 328 327 326 327 327 326 325 324 325 325
336 336 337 337 336 336 334 333 334 335 336 337 337 337 337 337 337 337 339 341 341 340 341 341 342 343 342 342 341 341 340 340 340 339 339 338 335 332 330 329 331 334 336 338 335 330 328 329 329 329 329 329 329 329 328 328 329 330 331 332 333 334 335 335 335 336 336 337 336 336 336 336 336 333 330 327 326 326 326 327 326 325 325 325 325
336 336 336 336 335 335 333 331 332 335 336 337 337 337 337 336 336 336 337 338 338 338 339 340 340 341 340 340 340 340 341 341 341 341 341 340 340 338 335 332 330 330 333 335 335 333 332 332 331 331 330 330 330 329 329 328 329 329 328 328 329 331 332 333 333 334 335 336 336 336 336 336 336 336 334 329 326 326 326 326 326 326 325 325 326
336 336 335 335 334 333 333 332 331 333 335 336 336 337 336 336 336 336 336 337 337 337 337 338 338 338 339 338 338 339 340 340 340 340 340 340 340 341 340 338 336 335 334 334 334 335 335 334 334 333 333 332 331 330 330 329 329 329 329 328 328 327 328 329 330 332 333 334 335 335 335 336 336 336 336 332 328 325 325 326 326 326 326 326 326
336 335 334 334 334 332 332 331 331 332 332 334 336 336 336 336 336 336 336 337 336 336 336 336 336 336 336 337 336 337 338 338 338 339 338 339 339 339 339 339 339 338 338 337 337 337 336 334 334 335 334 334 334 333 333 333 332 332 331 329 328 326 326 326 327 328 329 331 332 333 334 334 335 335 336 335 330 326 325 325 326 326 326 326 326
334 334 333 333 333 331 330 331 332 333 333 333 335 336 337 337 337 337 337 337 337 337 336 335 334 335 335 334 334 334 335 336 336 337 337 337 338 337 337 337 337 337 338 338 339 339 337 334 334 335 334 335 335 334 335 335 336 335 334 333 332 330 328 325 325 325 326 327 329 330 331 332 333 334 335 335 333 328 326 325 326 326 326 326 326
333 332 332 332 332 331 330 330 331 333 333 333 333 335 336 337 337 337 337 337 337 336 335 335 335 335 334 334 333 333 334 335 335 335 335 336 336 337 337 337 337 337 337 337 338 338 338 337 335 335 335 335 335 334 335 336 336 336 336 336 336 335 333 330 327 324 324 324 325 327 328 329 331 332 333 333 332 330 328 326 326 327 327 326 326
334 333 332 331 331 331 329 328 329 331 332 332 332 332 333 334 335 335 335 335 335 334 334 334 334 334 333 332 332 333 334 334 333 334 334 334 335 336 336 337 337 337 337 337 337 337 337 337 336 335 335 335 334 334 334 335 336 336 336 336 336 337 336 334 333 330 327 326 325 324 324 326 328 329 330 330 330 330 329 327 326 326 327 327 327
335 334 333 332 331 329 328 327 328 329 330 330 331 331 332 332 333 334 334 334 334 334 333 333 333 333 332 332 332 333 333 333 332 333 333 334 334 334 335 335 335 336 336 336 336 337 337 336 336 335 335 335 335 334 334 335 336 336 335 334 334 335 336 335 335 335 334 332 330 328 326 324 325 325 327 329 329 330 330 329 327 326 326 327 327
337 336 335 333 331 329 328 327 327 328 328 329 329 330 331 332 332 333 333 333 333 333 333 332 332 332 332 332 332 333 333 333 333 333 333 334 334 334 334 334 334 335 335 335 336 337 337 337 337 336 336 336 337 335 334 335 336 335 334 334 334 335 335 335 335 336 336 337 336 334 332 330 328 325 325 326 328 330 331 331 330 328 326 326 327
337 336 336 335 333 331 329 328 327 327 327 327 327 328 328 329 331 332 332 332 332 332 332 332 332 333 333 333 333 333 333 333 333 334 334 334 335 335 335 335 335 336 336 336 337 337 338 339 339 338 338 338 338 336 335 336 336 334 335 338 338 336 336 336 336 336 337 337 337 336 336 335 334 332 329 327 326 328 329 330 330 330 329 327 326
337 336 336 336 335 333 331 329 328 327 327 327 327 327 327 327 329 330 330 331 331 331 331 331 332 332 332 332 332 333 333 334 334 335 335 335 336 335 335 336 337 338 338 339 340 340 341 341 340 340 339 340 339 338 338 339 339 339 341 343 342 341 342 342 342 341 341 341 341 340 339 339 339 338 335 333 330 328 327 328 329 330 330 329 327
338 338 338 337 336 335 333 331 329 328 328 327 327 327 327 327 327 328 329 329 330 330 330 331 331 331 332 332 332 332 334 334 334 335 336 337 338 337 337 338 340 341 342 342 342 342 343 343 342 342 343 343 343 343 344 345 346 347 348 348 348 348 348 349 347 345 345 346 346 346 344 344 344 343 342 340 337 334 331 329 328 329 330 330 330
341 340 339 338 337 336 334 333 331 330 328 327 327 327 327 327 327 327 328 328 329 329 330 330 331 331 332 332 332 333 334 334 335 336 338 339 340 341 341 342 344 345 346 345 345 344 345 345 345 346 347 347 347 349 350 351 352 353 353 353 353 353 352 352 352 350 348 350 351 350 350 349 349 348 346 346 344 341 338 335 332 331 330 330 331
344 341 340 339 337 336 336 334 333 331 329 328 328 327 327 328 327 327 327 328 328 328 329 329 330 331 331 332 333 333 334 335 336 338 340 341 343 344 344 344 346 347 348 348 348 348 349 349 350 350 351 352 353 354 355 356 356 356 356 356 355 355 355 354 355 354 353 353 353 352 352 352 351 351 350 349 348 345 343 340 337 335 333 332 332
347 345 342 340 338 337 336 335 334 332 330 329 328 328 328 328 328 328 328 328 329 329 329 330 330 331 332 332 334 334 335 337 338 340 342 343 345 346 347 347 348 349 350 351 351 352 353 353 354 355 356 356 357 357 358 359 358 357 357 357 357 357 356 356 356 356 356 355 353 352 353 354 353 352 352 351 349 346 346 344 340 338 337 334 332
351 349 345 342 340 337 336 335 334 333 331 330 329 329 329 329 329 330 329 330 331 331 332 332 332 332 333 334 335 336 337 338 340 342 344 346 347 348 349 350 350 351 353 353 354 356 356 357 358 358 358 359 360 360 360 360 359 359 358 358 358 356 354 353 355 355 355 354 353 351 352 354 354 353 353 354 350 348 350 349 345 343 341 338 335
354 352 349 347 344 340 338 337 336 334 333 332 331 331 331 331 331 332 332 332 333 334 334 335 334 334 335 336 337 338 339 340 342 344 346 347 349 350 351 352 352 353 355 356 357 358 359 359 360 360 360 361 361 361 361 360 360 360 358 357 357 354 351 351 353 354 354 353 352 349 349 352 354 352 353 354 351 349 352 352 349 347 344 340 337
356 355 354 353 351 347 345 344 342 338 335 334 334 333 333 333 334 335 335 335 335 336 336 336 336 336 337 338 339 340 341 342 343 345 347 349 350 351 352 353 354 355 356 357 358 359 359 360 361 361 361 361 361 361 361 360 360 360 358 357 356 352 350 352 354 354 354 354 353 351 348 350 352 350 351 352 350 349 352 352 350 349 346 343 341
357 357 357 356 355 353 352 351 349 345 340 339 337 336 335 337 338 338 337 338 338 339 338 338 338 339 340 341 341 342 343 344 345 347 349 350 351 353 354 354 355 356 357 358 359 360 360 360 361 361 360 360 359 358 358 358 359 360 359 359 358 355 352 352 354 356 357 357 356 354 349 349 351 350 348 349 349 349 350 350 350 350 345 343 342
358 358 358 358 358 357 356 355 354 351 349 346 344 343 342 343 343 342 341 341 341 341 340 340 341 341 342 343 344 345 345 346 347 349 351 352 353 354 355 356 357 357 358 359 360 360 361 361 361 360 359 357 356 356 358 360 361 361 360 359 360 357 354 354 354 356 357 356 356 355 351 350 352 350 348 349 348 347 348 349 350 350 346 342 342
359 359 360 360 360 360 360 359 358 357 356 353 351 351 350 349 348 346 345 345 344 344 343 342 342 343 343 344 345 346 347 348 349 351 352 354 354 355 356 357 358 358 359 361 361 361 361 361 360 359 358 357 358 359 361 362 362 361 360 359 359 359 358 358 357 356 357 354 351 351 351 350 351 350 349 348 347 347 347 347 347 347 347 346 345
Wind_Speed
10 11 10 10 9 8 7 7 7 6 6 5 5 4 3 3 2 1 2 2 2 2 1 1 2 1 0 2 3 3 3 3 4 4 3 3 3 2 1 1 1 1 1 2 2 3 2 2 2 2 1 1 1 2 1 1 1 1 1 1 2 1 1 1 1 0 0 1 1 1 1 2 3 3 4 4 5 5 6 7 7 8 8 8 8
11 11 10 9 8 8 7 7 7 7 6 6 5 4 4 4 2 2 3 3 2 3 2 2 3 2 1 1 2 2 3 3 4 4 3 2 3 2 1 1 1 1 1 1 1 2 2 2 2 2 2 1 1 1 1 0 1 1 1 0 0 0 1 1 1 1 1 2 2 2 2 3 4 4 4 5 5 5 5 6 7 7 8 8 8
11 10 10 9 8 8 7 6 6 6 5 5 4 3 4 4 2 2 4 4 4 4 4 4 4 3 3 2 2 2 2 3 3 4 3 2 2 2 1 1 2 1 1 0 1 1 1 1 1 2 2 1 1 1 1 0 1 1 2 2 2 2 2 2 2 2 2 2 3 3 4 4 5 5 5 5 5 5 6 6 7 8 8 9 9
11 10 9 8 7 7 6 6 6 5 4 4 4 4 4 2 1 2 5 7 6 6 6 5 5 4 4 3 3 2 2 2 3 4 4 3 2 2 2 1 2 2 1 1 1 1 1 1 2 1 1 0 0 0 1 1 1 1 2 2 2 3 3 3 3 3 3 3 4 4 4 5 5 5 5 5 5 5 6 7 8 8 9 10 10
10 9 9 8 7 7 6 6 6 5 4 4 3 3 4 2 1 3 6 8 7 6 6 6 5 5 4 3 2 2 2 2 2 3 3 3 2 1 2 2 1 2 2 2 1 0 1 1 1 1 1 1 1 1 1 1 1 2 2 2 3 3 3 3 4 4 4 4 4 5 5 5 5 5 6 6 6 7 7 8 9 9 9 10 10
10 9 9 8 8 7 6 6 5 4 4 3 3 3 3 3 1 3 7 9 8 6 6 6 5 4 3 2 1 1 2 2 2 2 2 2 1 1 1 1 1 1 2 2 1 1 1 1 1 1 2 1 2 2 2 2 2 2 2 3 3 3 4 4 4 4 4 4 4 5 5 5 5 6 7 7 8 8 9 9 9 9 9 10 10
10 9 8 8 8 7 6 5 4 4 3 3 3 3 4 4 3 2 6 9 8 6 5 5 5 4 3 2 2 1 1 2 2 2 2 1 1 1 1 1 1 0 1 2 2 2 2 2 2 3 2 3 3 4 4 3 4 4 3 4 4 4 4 5 5 5 5 5 5 6 6 6 7 7 8 9 9 10 10 10 10 10 10 10 10
10 9 8 8 8 7 7 6 5 4 3 2 2 3 4 4 3 4 6 8 8 6 5 5 5 4 3 2 2 1 0 1 2 2 1 1 1 2 2 1 1 0 1 1 2 2 2 2 3 3 4 4 5 5 5 5 6 6 5 6 5 5 6 6 6 6 6 7 7 7 7 8 8 9 9 10 10 10 10 10 10 9 10 10 9
9 9 8 7 7 6 6 6 4 4 3 3 2 3 5 5 5 6 7 9 8 6 5 5 5 5 4 2 2 1 0 0 1 2 1 1 2 3 2 1 1 0 1 1 1 1 2 2 3 3 3 4 5 5 5 6 6 7 7 7 7 6 7 7 7 7 7 8 8 8 8 8 9 9 9 9 10 10 10 9 9 9 9 9 9
10 9 8 7 6 6 6 6 5 5 5 4 3 4 5 6 7 8 9 9 7 6 6 5 6 6 5 4 3 2 1 1 1 1 1 1 2 2 1 1 1 1 1 1 1 1 2 2 2 3 3 3 4 5 5 6 6 6 7 7 7 7 7 8 8 7 8 8 8 7 8 8 8 8 8 8 8 8 8 8 8 8 8 8 8
11 11 9 7 7 6 6 6 6 6 6 5 4 4 5 6 7 9 9 9 8 7 6 7 7 6 6 5 4 3 2 1 1 0 1 1 2 2 1 1 1 1 1 2 2 2 2 3 3 3 3 4 4 5 5 5 5 6 6 6 6 7 7 8 8 7 7 7 7 7 7 8 8 7 7 7 7 7 7 8 8 8 7 7 7
12 11 10 9 8 7 7 6 6 7 6 5 4 4 6 6 8 9 9 9 9 8 7 7 7 5 6 6 5 4 2 1 1 2 1 1 1 1 1 1 1 2 2 2 2 2 2 3 4 3 4 4 4 5 6 6 6 6 6 6 6 6 7 7 6 7 7 7 7 7 7 7 7 7 7 7 7 8 8 8 7 7 6 6 7
11 11 11 10 9 9 9 7 7 7 6 4 4 5 6 6 8 10 10 9 9 9 8 8 7 5 6 6 5 4 2 2 3 3 2 2 1 1 1 0 1 2 2 2 2 2 2 3 3 3 3 4 5 5 6 7 7 7 7 7 7 7 7 6 6 7 7 6 7 7 6 6 6 7 8 8 8 8 8 7 7 6 6 6 7
11 11 10 10 10 11 10 9 8 7 6 5 5 6 7 7 8 10 11 10 9 9 9 8 7 6 6 5 5 5 4 3 3 3 3 2 2 1 0 0 1 1 2 2 3 2 2 3 3 3 4 4 5 5 6 6 7 7 7 6 7 7 7 7 7 7 7 7 7 6 6 6 7 7 7 7 7 7 7 6 6 6 6 6 7
12 11 11 11 11 12 11 10 9 8 7 6 6 6 7 8 8 10 11 11 10 8 8 8 7 6 5 5 5 6 6 5 5 4 4 3 3 2 1 0 1 2 3 3 3 2 2 2 3 3 4 4 4 5 5 6 7 7 7 6 6 7 7 7 8 8 7 7 6 6 6 6 6 6 6 6 6 6 6 6 6 6 6 7 7
13 12 12 11 12 13 12 11 10 9 8 7 6 6 7 8 8 9 11 11 10 8 8 8 7 6 5 5 6 7 7 6 6 5 4 4 3 3 3 2 1 0 2 3 3 2 2 2 3 3 4 5 5 5 6 6 6 6 7 6 6 6 7 7 7 7 7 7 7 6 6 6 5 5 5 5 5 5 6 6 6 6 7 7 7
14 13 12 12 13 13 13 12 11 10 9 8 6 6 7 8 9 9 10 11 10 9 8 9 9 8 6 6 6 5 5 4 6 7 5 4 4 4 3 4 4 2 0 1 2 2 2 1 3 3 4 5 5 6 6 6 6 6 7 7 8 8 7 8 8 8 7 7 7 6 5 5 5 5 5 5 5 5 6 6 6 7 7 7 8
15 13 11 12 13 14 14 13 12 11 10 9 7 7 7 8 9 9 9 10 10 10 10 10 11 10 8 7 6 4 4 4 6 8 7 6 5 4 3 4 5 3 1 0 1 2 2 1 1 2 3 4 5 5 5 6 6 7 7 8 9 8 8 8 8 8 8 8 7 6 6 5 5 5 5 5 5 6 6 6 7 7 7 8 8
17 14 12 12 13 14 14 14 13 12 11 10 9 7 8 8 9 9 9 11 12 11 11 10 11 11 9 8 8 6 6 7 7 8 7 6 6 5 4 4 5 4 2 1 1 2 3 2 2 2 3 5 6 5 5 5 5 6 6 7 8 8 8 8 8 9 8 7 7 6 6 6 5 5 6 6 6 6 7 7 7 7 7 8 8
18 16 14 13 13 13 14 14 14 13 12 12 10 8 8 9 9 10 10 11 12 12 12 11 11 10 9 10 10 9 8 8 7 7 7 6 6 6 5 5 5 4 2 1 2 3 3 2 1 1 2 4 6 6 6 5 5 5 5 6 6 7 8 8 8 8 8 7 7 7 6 6 6 6 7 7 7 7 7 7 7 7 8 8 8
19 17 16 15 14 13 13 14 14 13 13 12 11 10 10 9 10 11 11 11 12 13 14 13 11 10 10 11 12 11 10 8 7 8 9 8 7 7 6 7 6 3 2 1 1 2 3 3 3 2 2 3 5 6 6 5 5 5 5 5 5 6 7 8 8 8 8 8 8 7 7 7 7 7 7 7 7 7 7 7 7 7 8 8 8
20 18 17 16 16 14 14 14 13 13 13 13 12 12 11 10 11 11 11 12 12 13 14 14 13 12 12 12 12 13 11 10 8 8 9 10 9 8 7 8 7 5 4 3 3 3 4 4 5 4 3 3 4 5 6 5 4 4 5 5 5 6 6 7 7 8 8 8 8 8 8 8 8 8 8 8 7 7 7 7 7 8 8 8 9
21 19 18 18 17 16 16 15 14 14 14 13 13 12 11 11 11 12 12 12 13 13 13 14 14 13 13 14 14 14 14 13 12 10 11 11 12 10 8 8 9 6 5 6 6 6 6 6 6 5 4 4 4 4 4 5 4 4 4 5 5 6 6 7 7 8 8 9 9 9 9 9 9 9 9 8 8 7 7 7 7 8 8 9 9
23 21 20 19 19 18 18 17 17 16 15 14 13 13 13 12 13 13 13 13 13 13 13 14 13 13 13 13 13 14 15 16 15 14 14 13 13 13 11 10 11 8 6 8 8 8 8 8 7 6 6 6 6 6 5 5 5 4 4 4 5 6 6 6 7 8 8 9 10 11 11 10 10 10 10 9 9 8 8 8 8 9 9 9 10
24 22 20 19 20 20 19 19 18 17 15 15 14 14 14 14 14 13 13 13 13 13 13 13 13 13 13 13 13 13 13 14 15 16 15 14 14 13 12 12 13 10 9 9 10 9 8 7 7 7 7 7 7 7 7 7 6 6 6 6 6 7 6 6 7 8 9 10 11 12 12 12 11 11 11 10 10 10 10 10 10 10 11 11 11
23 21 19 19 19 20 20 19 19 18 17 16 15 15 15 15 15 14 14 13 13 13 13 13 13 13 13 13 13 12 11 12 14 15 15 14 13 12 13 14 14 13 12 12 12 11 8 7 7 8 7 7 7 7 8 7 7 7 8 8 7 8 8 7 8 8 9 10 11 12 13 13 13 13 13 12 12 12 12 12 12 12 13 13 13
23 21 20 19 19 20 20 20 19 19 18 17 16 16 16 16 16 15 14 14 14 14 13 13 13 13 13 13 13 12 11 11 13 13 14 14 13 12 13 14 15 15 14 14 14 12 10 8 8 7 7 6 6 6 7 7 7 8 9 10 9 9 9 9 9 9 10 10 11 13 14 14 14 15 15 15 14 14 14 14 14 14 14 15 15
25 23 22 21 20 20 20 20 20 20 19 18 17 17 17 17 17 16 15 15 15 14 14 13 13 12 12 13 13 12 12 12 13 13 12 13 13 13 14 14 15 16 17 17 16 13 11 10 9 8 7 7 7 6 6 7 8 9 11 12 11 11 11 12 12 11 12 12 12 13 14 15 16 16 16 16 16 16 16 16 16 16 16 16 16
27 25 23 22 22 22 21 20 21 21 20 20 19 18 18 18 18 18 17 16 15 15 15 15 14 13 13 13 13 12 11 12 13 13 13 12 13 14 15 15 15 16 18 20 21 17 14 12 11 10 9 9 9 9 9 9 8 9 12 13 13 13 13 13 14 14 14 14 15 15 15 16 17 18 18 18 18 18 18 17 17 17 17 17 17
28 26 24 23 23 23 22 21 21 22 21 21 20 20 20 20 20 19 18 17 17 16 16 16 15 15 15 15 14 13 12 12 12 13 13 13 13 14 15 16 17 17 18 21 24 21 15 13 12 11 11 11 11 12 12 12 11 11 13 14 15 15 14 15 16 17 17 17 18 18 17 18 18 19 20 20 20 19 19 19 18 18 18 18 18
29 27 25 24 23 23 22 22 23 23 22 22 22 21 21 21 21 21 20 19 19 18 17 17 16 16 17 16 16 15 13 13 12 12 13 14 14 15 15 16 18 19 19 21 25 24 19 18 18 17 17 17 16 15 16 16 15 16 16 17 17 17 17 18 18 18 19 20 20 20 20 20 20 20 20 21 21 21 21 20 20 20 19 19 18
30 28 26 24 23 23 22 23 24 25 24 23 22 22 22 22 22 22 22 21 21 20 19 18 17 18 18 18 18 16 15 15 14 14 14 14 15 15 16 17 18 19 20 22 26 28 25 23 23 22 21 21 20 20 19 19 19 20 21 21 21 21 21 21 20 20 21 21 22 22 23 23 22 22 22 22 23 22 22 22 21 21 21 20 19
30 29 27 25 24 23 22 23 25 26 26 25 24 23 23 23 23 23 23 23 23 22 20 20 19 19 19 19 19 18 17 17 17 16 16 16 16 16 17 18 19 19 21 22 26 30 29 27 24 23 22 23 23 21 21 22 22 22 24 24 24 25 25 25 24 23 23 23 24 24 25 25 25 24 23 23 23 23 23 23 22 22 22 21 21
30 30 29 27 26 24 23 23 25 27 27 26 26 25 24 24 23 23 23 23 23 22 21 21 20 20 20 20 20 19 18 19 18 18 18 17 18 18 18 19 20 20 21 23 25 29 31 29 27 25 24 24 24 23 22 23 23 24 25 26 27 28 28 28 28 27 26 25 26 26 26 26 26 26 26 25 25 24 24 24 24 24 24 23 22
30 30 29 28 27 26 25 24 25 26 27 27 27 26 26 25 24 24 23 23 23 22 22 21 20 20 21 21 20 19 19 20 20 19 19 19 20 20 20 21 22 22 22 24 25 28 31 31 29 27 25 25 25 24 24 25 25 25 27 27 27 28 29 30 31 30 29 28 28 28 28 28 28 27 27 26 26 26 26 25 25 25 25 25 24
30 29 29 29 28 28 27 26 26 27 27 27 27 28 28 27 26 25 25 24 24 23 23 22 22 22 22 21 20 19 20 21 21 20 20 21 21 22 22 22 23 24 24 25 27 28 30 32 31 28 28 29 28 27 27 29 28 29 29 29 29 29 29 30 32 32 32 31 31 31 31 31 30 30 29 28 28 28 28 27 27 27 27 27 26
31 30 29 30 30 29 29 29 28 28 28 28 28 28 29 28 28 27 26 26 25 25 24 23 23 23 23 21 20 20 22 22 21 20 20 21 21 22 23 23 23 24 25 26 27 29 31 34 34 31 30 31 31 30 30 32 32 32 32 32 32 32 32 31 32 33 33 33 33 33 33 33 33 33 32 31 31 30 29 29 29 29 29 28 28
32 31 31 31 30 30 30 30 30 30 29 29 29 29 29 29 29 29 28 28 27 26 26 25 24 24 24 23 22 23 23 22 21 21 21 22 23 23 24 24 24 25 26 27 28 29 31 33 35 35 33 33 33 33 31 32 35 35 34 34 34 34 34 34 34 33 33 33 34 34 34 35 35 35 35 34 34 32 31 31 31 31 31 30 30
33 33 33 32 32 31 31 31 31 31 31 30 30 30 30 30 30 30 30 29 29 29 28 27 27 27 26 25 25 25 25 24 24 23 24 24 25 25 25 25 25 26 27 28 29 30 32 33 35 36 36 35 35 35 33 33 36 36 35 35 36 35 34 34 35 34 34 34 34 33 34 35 35 36 36 36 36 35 34 33 33 32 32 32 32
34 34 34 33 32 32 32 32 32 32 32 32 32 32 32 31 31 31 31 31 31 31 30 30 29 29 29 28 28 28 27 27 27 27 26 26 26 27 26 27 28 29 29 30 31 32 33 35 36 36 37 38 37 36 35 35 36 36 34 36 38 37 35 35 36 35 34 34 33 33 34 35 35 36 36 37 37 37 36 36 36 35 34 33 33
34 34 34 34 33 33 33 33 33 34 34 34 34 33 33 32 32 32 32 32 32 31 31 31 31 31 30 30 30 30 29 29 29 28 28 27 28 28 28 28 30 30 31 31 32 32 33 35 36 36 37 38 37 36 35 34 34 35 35 36 38 37 36 37 37 35 34 34 34 34 35 34 34 35 36 37 37 37 37 38 38 38 36 35 34
34 35 35 35 35 35 34 34 35 35 35 35 34 34 33 33 33 32 32 32 32 32 32 32 31 31 31 31 30 30 30 29 28 27 27 27 27 27 28 28 29 30 30 31 31 31 32 34 35 35 36 38 36 35 35 35 34 35 35 36 38 37 37 40 40 37 35 35 37 38 37 35 35 36 36 36 36 35 35 36 38 39 39 37 35
34 35 35 35 36 36 35 36 36 36 36 36 35 35 34 33 33 33 33 33 32 32 32 32 32 32 31 31 31 30 29 28 27 26 26 26 26 26 26 27 27 28 29 29 30 30 31 33 34 34 37 39 37 35 36 36 35 35 35 36 38 39 39 41 43 41 37 36 38 42 42 39 38 39 40 39 37 34 33 33 33 36 38 39 38
33 34 35 36 36 36 36 36 37 37 37 36 35 35 35 34 34 34 34 34 33 33 33 33 33 32 32 32 31 30 29 27 26 26 26 26 25 26 26 25 25 26 26 27 28 29 30 32 34 35 36 38 38 36 35 34 35 36 37 38 39 40 40 41 43 43 40 38 41 45 46 44 43 43 43 43 41 36 32 31 32 32 34 37 38
32 34 35 36 36 36 36 37 37 37 37 36 36 35 35 34 34 34 34 34 34 34 34 33 33 32 32 31 30 30 28 27 27 26 25 25 25 25 24 24 24 24 24 25 26 27 28 31 35 37 35 35 38 37 34 34 36 39 41 41 40 41 43 44 45 45 43 43 46 49 51 49 47 47 48 47 46 41 34 33 36 36 33 34 35
33 34 34 35 36 36 36 37 37 37 37 36 36 35 35 34 34 34 34 34 35 35 34 34 33 32 31 31 31 30 28 27 27 26 25 24 24 24 24 24 23 23 23 24 24 25 27 29 33 36 34 34 38 39 37 36 39 41 41 41 42 43 44 45 47 47 46 47 50 51 53 53 50 51 53 51 50 49 42 38 41 40 37 35 35
33 33 33 34 34 35 35 36 37 37 37 36 35 35 34 34 33 33 34 34 35 35 34 33 32 31 31 31 31 30 28 27 26 25 24 24 24 25 25 25 24 24 24 24 23 24 25 27 31 35 35 36 38 39 38 37 38 39 40 41 43 43 43 44 47 49 49 51 51 50 53 55 52 52 56 54 52 54 52 47 45 43 40 39 37
33 33 33 33 33 34 34 35 36 37 36 35 34 34 33 33 33 33 34 34 34 34 34 32 31 30 30 30 30 29 28 27 25 24 23 23 25 26 26 26 26 26 27 26 24 25 26 28 31 34 35 35 35 35 34 34 35 36 38 42 43 42 42 46 49 50 50 50 50 50 52 55 54 53 56 55 54 56 58 56 54 50 46 42 40
34 33 33 33 32 32 33 34 34 35 35 33 33 32 32 32 32 32 33 33 33 33 32 30 30 29 29 29 28 28 27 26 24 22 22 23 25 27 27 27 28 29 29 28 27 28 28 29 31 32 33 33 32 32 32 32 33 35 38 43 45 43 45 48 50 52 51 49 50 51 52 54 55 53 54 55 55 56 58 56 55 56 50 41 38
32 31 31 30 31 31 31 32 32 33 33 32 31 30 30 30 31 30 30 31 32 32 30 28 28 28 28 27 27 27 27 24 22 21 21 23 25 27 27 29 31 33 32 30 30 31 30 31 31 31 31 31 31 32 35 36 38 38 39 43 44 44 47 49 50 53 53 52 52 50 50 53 54 51 52 53 54 57 57 55 54 54 50 42 36
29 29 28 29 29 29 29 29 29 29 30 28 28 28 28 28 28 28 28 30 31 30 28 27 27 26 26 26 25 25 24 22 20 20 20 23 26 27 28 31 34 34 32 30 30 31 30 30 31 31 32 33 34 36 39 41 42 40 39 40 41 42 44 47 49 51 52 54 54 50 51 54 53 51 50 48 51 55 56 54 52 50 47 44 40
Wind_Direction
156 157 157 156 154 156 160 162 167 173 180 186 192 196 214 229 228 216 218 219 227 230 198 201 229 252 78 78 83 80 65 51 46 44 48 64 70 94 137 170 182 184 163 156 167 162 155 148 134 106 71 47 52 64 81 89 77 89 92 105 110 122 139 170 198 150 340 337 326 338 344 325 337 351 347 347 352 349 349 347 343 345 345 346 352
157 159 160 162 163 163 164 165 169 174 181 189 191 196 220 236 241 232 230 227 214 195 179 185 203 216 197 122 105 94 70 46 32 26 29 51 58 59 121 159 156 224 230 187 188 184 167 158 148 126 91 48 52 45 48 73 260 257 284 287 13 298 254 259 277 293 296 304 311 311 312 316 326 330 330 333 336 334 335 336 337 342 344 345 349
159 161 164 166 168 170 172 172 171 171 177 191 195 204 221 233 246 231 214 208 197 178 173 179 184 191 182 150 116 101 73 46 23 10 7 24 46 37 26 196 181 201 252 231 282 247 174 178 209 151 107 48 39 28 13 349 295 279 283 287 297 297 291 292 294 298 297 303 305 302 305 309 314 315 316 321 323 327 330 334 336 340 340 339 340
164 165 169 170 172 175 179 177 173 172 177 201 215 228 240 239 203 212 204 195 189 178 172 172 172 171 166 145 113 105 77 44 14 1 355 358 24 23 3 283 208 197 205 171 10 308 283 227 238 198 112 40 345 345 334 323 319 304 303 298 293 294 298 299 299 300 300 303 304 302 305 308 311 314 318 324 327 330 331 331 331 333 333 332 333
171 172 175 177 181 182 179 176 179 182 184 207 226 241 261 269 150 190 201 192 187 178 166 162 164 161 158 147 120 112 89 47 11 358 351 348 359 4 5 345 244 217 221 211 149 16 303 268 282 299 266 310 299 286 286 288 300 299 304 301 295 303 311 313 309 308 308 307 309 310 315 319 322 324 328 329 325 326 326 323 325 327 327 325 326
178 178 181 184 188 187 181 177 183 193 190 202 226 233 258 279 240 185 192 189 186 177 168 167 167 164 166 164 145 128 98 52 19 4 353 349 359 20 34 13 329 234 229 227 220 198 256 276 283 271 269 286 273 263 258 254 273 269 276 286 290 300 304 310 314 313 310 306 310 315 319 321 322 320 320 320 319 319 319 319 321 322 323 322 322
185 184 187 189 193 191 187 186 190 201 199 194 218 228 240 265 272 217 194 188 186 185 186 191 186 184 191 198 211 196 106 54 30 11 350 359 26 59 52 26 29 298 216 219 226 216 228 248 256 266 275 279 272 272 272 266 266 258 259 267 270 282 289 292 298 304 306 307 313 318 317 317 316 315 314 315 315 316 315 317 319 320 323 325 327
192 190 193 195 194 188 185 192 201 207 209 193 211 242 243 251 252 225 204 194 194 196 199 200 199 201 202 207 217 218 46 49 38 17 352 15 54 70 47 21 34 255 211 214 223 218 222 236 256 271 276 282 285 288 285 278 275 272 271 269 266 270 277 280 286 295 299 303 308 311 313 313 313 314 314 315 315 316 316 316 320 323 325 330 335
200 198 198 198 195 189 189 197 205 212 220 210 214 240 245 248 238 218 205 201 202 207 209 200 197 203 211 222 222 236 347 82 28 19 26 41 71 82 55 7 340 290 253 249 253 249 231 226 250 268 276 285 293 293 290 285 283 283 279 278 278 275 277 281 284 291 294 298 303 306 310 312 314 314 315 316 315 315 315 318 323 326 330 334 337
207 207 203 199 200 199 202 209 211 220 228 224 229 238 234 232 225 215 210 214 221 226 231 226 214 217 229 234 231 240 228 188 358 18 70 70 99 112 92 350 309 295 284 279 292 290 273 259 256 261 270 273 279 286 291 291 288 287 287 288 289 284 281 282 283 287 291 294 299 306 310 312 313 313 314 312 310 312 317 321 326 329 332 333 336
210 212 209 205 210 210 213 221 220 223 231 234 243 242 233 226 219 215 219 228 233 232 236 237 233 236 237 230 221 217 207 215 310 70 113 100 127 142 149 170 227 257 274 277 293 304 300 301 289 278 276 267 265 274 283 287 284 286 291 294 293 287 284 284 287 290 291 295 301 306 309 307 307 307 306 305 307 314 317 320 325 330 332 334 340
212 214 213 213 219 222 223 226 225 227 232 241 248 238 230 229 225 222 225 234 237 235 235 235 245 251 227 210 201 201 207 214 189 153 133 133 150 153 158 173 205 243 261 262 273 295 306 302 294 290 284 277 278 281 284 284 283 283 286 291 290 285 282 283 290 292 290 294 299 300 302 303 302 301 302 305 311 314 315 318 324 329 335 340 346
213 215 217 219 225 230 231 231 232 234 233 234 237 228 224 229 231 226 228 239 242 243 239 236 254 259 218 198 199 207 208 183 172 159 143 148 176 170 146 193 225 246 255 261 263 276 299 300 294 291 280 280 287 288 288 286 286 285 286 291 291 288 286 285 286 283 285 291 295 296 298 301 302 302 304 307 310 313 315 319 324 331 340 346 348
217 220 221 225 228 232 235 235 237 240 236 229 228 225 223 229 232 225 229 238 240 240 239 238 252 252 225 210 212 223 232 210 185 168 162 165 171 179 231 339 323 284 276 283 280 272 287 299 296 288 279 284 289 289 289 285 283 280 281 288 290 288 286 287 288 286 287 290 291 296 300 301 302 302 304 307 311 316 319 322 326 334 341 344 345
220 225 225 228 230 231 234 236 237 242 241 235 233 233 231 233 234 228 228 236 238 236 234 234 241 239 231 232 233 242 250 237 212 190 181 184 173 174 204 236 349 321 312 314 308 281 273 298 306 301 297 302 301 295 291 286 283 280 279 283 287 288 285 284 289 288 285 286 290 298 299 298 299 301 304 310 315 318 321 322 327 333 336 337 339
221 226 228 229 231 231 232 234 235 240 243 242 242 242 240 240 241 235 230 235 241 238 226 219 224 232 240 251 251 253 256 242 220 210 200 190 177 182 195 192 184 307 324 315 308 281 260 298 322 324 321 321 318 310 300 290 285 281 278 279 282 286 287 287 289 289 285 286 293 298 297 295 295 297 304 310 313 314 318 320 325 329 329 331 335
220 225 229 232 234 233 232 233 234 237 242 247 246 239 238 239 243 243 238 234 239 242 230 218 222 234 251 265 265 267 277 253 220 222 223 206 191 194 201 192 182 167 19 310 298 266 244 296 339 340 332 329 324 318 311 301 289 277 271 276 281 281 283 288 289 290 289 290 295 296 294 292 290 295 302 305 309 311 313 315 318 320 323 327 332
218 222 230 236 237 236 235 234 236 237 241 246 243 233 233 237 241 246 242 232 233 242 239 227 226 236 249 261 261 274 307 294 240 235 239 228 215 207 205 194 188 183 156 162 251 221 208 205 43 30 8 353 337 324 319 313 301 284 275 278 283 283 283 289 292 293 294 293 297 297 291 289 288 292 298 300 303 303 304 306 308 312 316 321 323
219 219 227 235 236 237 238 236 238 240 240 243 242 237 235 238 242 245 241 231 231 240 243 235 232 238 244 247 251 261 289 292 264 248 250 248 242 230 214 204 202 199 183 175 191 186 179 155 104 57 24 6 351 335 326 325 319 301 288 286 288 287 288 292 297 298 296 295 295 292 287 287 289 291 295 297 297 297 297 299 302 306 310 313 316
223 219 221 229 232 236 239 239 239 239 240 240 239 239 237 238 242 243 239 233 232 237 239 236 236 243 247 245 249 258 275 283 260 244 258 272 272 257 239 232 229 220 205 194 187 188 192 190 185 351 1 0 354 343 331 330 334 325 307 298 292 288 289 292 296 296 294 293 290 288 286 286 288 291 295 296 295 295 294 294 297 301 305 308 312
225 221 218 222 228 233 239 240 239 238 238 238 235 236 237 237 240 241 241 239 236 235 233 235 240 247 255 253 251 254 265 271 246 234 253 269 277 274 270 269 267 261 249 247 214 215 231 244 257 277 316 343 350 351 342 331 332 336 327 315 303 296 293 293 295 294 292 291 286 284 283 284 287 292 295 295 294 292 290 290 292 295 299 302 304
226 224 220 221 225 229 235 239 239 238 236 237 234 235 237 237 239 239 242 242 241 239 237 239 243 246 250 253 253 253 257 262 257 253 260 268 276 280 281 280 283 284 272 274 285 280 279 274 272 278 291 307 325 345 350 344 332 328 327 326 321 312 303 298 296 294 291 289 286 283 282 285 289 292 294 294 292 290 287 287 288 289 292 294 297
228 228 224 222 224 226 231 235 237 236 234 235 235 236 238 238 239 240 242 243 243 245 243 242 243 245 246 247 249 253 257 264 273 281 283 283 284 287 292 288 286 285 277 280 284 281 279 277 274 275 278 281 289 303 324 337 334 321 319 324 323 317 309 303 299 296 293 290 288 286 286 289 291 292 293 292 290 288 286 285 285 286 289 291 293
229 230 228 225 224 224 227 231 234 234 233 234 235 237 239 239 240 242 242 244 245 245 246 244 244 243 245 246 246 251 258 262 267 275 284 289 287 286 289 288 286 287 283 280 281 280 277 276 276 275 273 272 273 275 285 302 312 309 305 308 312 311 307 301 295 292 291 289 289 289 289 290 291 291 291 290 289 287 286 285 286 287 290 292 293
229 229 228 226 225 224 226 229 232 235 235 235 236 238 241 241 242 243 242 243 246 247 248 248 248 248 250 250 248 254 261 261 261 265 276 285 283 281 285 286 287 289 286 279 282 289 289 288 286 281 277 274 271 270 269 273 282 288 290 291 295 299 300 298 293 288 286 286 286 287 288 289 289 290 289 289 289 288 288 288 288 289 291 292 293
231 230 229 228 227 226 227 230 233 235 236 235 237 238 241 243 243 244 243 243 246 248 250 250 250 251 253 256 255 258 263 261 260 263 273 279 278 280 285 287 288 289 289 288 291 299 309 311 299 287 286 286 280 275 269 268 272 276 281 283 283 287 292 294 294 292 288 285 284 284 285 286 286 287 287 287 288 286 287 287 287 288 288 289 290
236 234 233 231 231 230 231 233 233 234 235 235 236 237 240 244 245 245 244 243 244 247 249 250 251 252 254 260 262 262 262 261 260 264 271 273 271 273 276 279 285 289 292 295 298 307 320 322 312 308 309 306 298 287 277 269 263 265 270 272 272 275 281 287 291 294 295 291 287 284 282 283 283 283 283 283 284 283 283 282 282 283 283 284 285
239 239 237 234 233 233 234 236 235 235 236 237 236 237 239 243 246 247 245 244 246 248 250 251 253 254 256 259 262 263 263 261 260 262 266 268 267 265 265 269 278 288 294 298 304 314 324 325 326 331 332 326 321 310 291 278 265 261 264 267 269 271 273 279 283 287 291 293 291 288 284 282 281 280 280 279 279 278 278 277 277 277 277 278 279
240 241 241 239 237 235 235 237 237 235 235 237 238 238 240 243 246 249 248 247 249 250 252 254 255 257 258 258 260 261 261 260 260 262 265 267 265 263 264 265 269 279 289 295 302 311 315 319 325 331 334 332 324 316 305 297 285 271 268 269 272 274 275 277 279 280 283 285 288 289 288 284 281 278 277 276 275 275 274 273 272 271 271 272 273
239 240 241 241 240 238 236 236 237 236 235 236 238 238 240 243 246 249 250 249 250 250 251 253 255 258 260 260 261 261 260 260 261 264 266 269 269 267 266 266 268 273 279 288 298 305 308 311 318 321 323 323 319 312 308 306 301 289 281 278 278 279 279 276 276 277 278 279 281 283 285 286 283 279 275 273 272 271 270 269 268 267 267 268 270
238 238 239 240 240 238 235 233 234 235 235 235 236 238 240 243 246 248 249 250 251 252 252 252 254 256 259 260 261 262 262 264 264 265 268 270 273 273 271 269 269 272 275 280 288 295 301 303 305 306 307 308 306 304 303 304 303 299 295 292 289 287 283 278 276 276 276 277 278 279 281 283 283 281 277 272 270 268 267 267 266 265 265 266 268
238 237 237 237 238 237 234 232 232 233 234 234 235 237 240 243 246 248 249 250 252 254 253 253 254 256 258 259 260 262 265 266 268 269 270 271 273 275 275 274 272 272 275 275 279 290 298 299 300 303 302 301 299 297 298 298 298 298 298 296 295 292 288 285 283 280 278 279 279 279 279 280 281 281 279 274 270 267 266 265 265 265 265 266 267
238 237 236 234 236 236 235 232 231 232 234 235 234 236 239 242 245 247 249 250 252 253 254 253 253 255 258 260 260 262 264 267 269 271 273 274 275 276 277 278 278 277 277 276 279 289 297 299 301 303 303 301 299 298 297 295 294 294 293 291 290 289 287 287 286 283 281 280 279 279 279 278 278 278 279 277 273 269 267 266 265 265 266 266 268
238 237 236 235 235 235 235 233 231 232 234 234 234 235 238 240 242 245 247 249 251 252 253 254 254 256 258 261 262 263 264 266 269 271 273 275 276 278 280 281 283 283 282 281 282 288 296 302 303 304 304 302 301 301 300 297 295 293 289 287 287 285 284 284 283 281 279 278 277 277 276 276 275 276 277 277 275 271 268 266 265 265 265 266 267
238 237 236 236 236 235 235 234 233 232 233 234 233 234 236 238 240 242 244 247 250 252 254 256 257 259 260 261 263 265 267 268 270 272 274 276 277 280 283 284 286 287 287 286 285 287 294 300 302 304 305 303 302 303 301 299 297 295 292 290 288 285 283 282 281 280 279 277 276 275 275 274 273 272 273 274 273 270 267 265 264 264 264 264 265
238 237 237 236 236 236 235 234 233 233 233 234 233 233 235 238 240 242 244 246 249 251 254 257 259 261 262 263 265 267 269 270 272 273 275 277 279 281 283 284 286 287 288 288 287 288 291 294 298 301 303 302 301 302 301 300 299 298 296 295 293 290 287 284 281 280 279 278 276 275 275 274 273 271 270 269 269 267 265 264 263 262 262 262 263
239 238 238 238 237 237 235 233 233 234 234 236 237 236 236 237 240 243 245 247 249 251 254 256 259 261 263 265 267 269 270 272 274 275 276 277 279 281 282 283 285 286 287 288 288 289 289 291 295 298 298 299 300 300 301 301 300 299 298 297 296 295 294 291 288 286 285 283 280 278 277 275 274 272 270 268 267 265 265 264 263 262 262 262 262
240 239 239 239 239 238 236 235 235 235 236 237 238 239 239 240 241 243 245 247 249 251 253 255 257 260 262 265 267 268 271 273 274 276 278 279 280 281 283 284 285 286 287 288 289 290 290 291 294 295 296 297 297 298 299 300 300 299 298 297 296 297 298 298 297 296 295 292 288 285 282 279 276 273 271 269 267 266 265 264 263 262 261 261 261
242 241 241 241 241 239 238 237 237 238 238 238 238 240 241 242 243 244 245 247 249 251 253 255 257 259 261 264 266 268 270 272 273 274 276 278 280 282 283 284 285 286 286 288 289 290 292 292 293 294 295 296 296 296 298 298 297 296 297 298 298 298 299 298 297 297 296 294 292 289 285 282 279 275 272 270 268 266 265 265 263 262 260 260 260
242 242 242 243 243 242 241 240 240 240 241 240 240 240 241 242 244 245 246 248 250 252 254 255 257 259 261 263 265 267 269 271 273 274 276 278 279 280 281 282 283 284 285 287 288 290 291 292 293 294 295 296 296 296 297 297 296 296 299 301 299 299 299 297 295 295 294 293 291 289 285 283 281 279 276 273 269 266 264 264 263 263 261 260 259
242 242 243 244 245 245 244 243 243 243 243 243 242 241 242 243 244 246 248 250 252 254 256 258 259 260 262 264 265 267 269 271 273 275 276 277 279 279 280 281 283 285 286 287 289 290 292 293 293 294 294 295 295 296 296 296 298 300 302 302 301 301 302 299 294 293 294 294 292 289 285 285 286 284 281 277 273 269 266 264 263 263 262 261 260
242 243 243 244 244 245 245 245 245 245 245 245 244 244 245 246 247 249 250 252 254 256 258 260 262 264 265 267 269 270 272 274 275 276 278 279 280 281 281 283 285 287 289 289 290 291 292 293 293 294 295 294 294 296 297 298 300 302 303 303 302 302 303 300 295 292 293 295 295 291 288 289 291 288 284 280 277 274 270 266 265 264 264 263 261
243 243 244 244 244 245 245 246 246 247 246 246 246 248 249 249 251 253 254 255 257 258 260 262 263 266 268 270 272 275 277 278 278 280 281 282 283 283 283 284 287 289 290 290 290 291 292 293 293 294 294 294 295 298 300 302 305 305 304 304 302 301 302 301 298 294 293 296 298 296 292 291 292 291 287 283 281 279 277 274 272 270 268 266 264
243 243 243 244 244 244 245 246 247 248 247 247 248 249 251 252 253 255 257 259 260 261 263 264 266 268 270 272 275 277 278 280 281 283 283 283 285 285 285 286 287 288 289 288 289 291 292 293 293 293 294 296 298 300 303 307 307 306 303 301 300 300 300 299 298 298 298 299 299 296 292 289 290 289 285 282 281 281 281 280 276 270 266 264 262
244 244 244 244 245 244 245 246 247 248 249 249 250 251 252 253 255 257 259 261 263 264 266 267 269 271 273 275 277 278 279 280 282 283 284 285 287 288 288 288 287 287 288 289 290 292 293 293 293 294 296 299 299 300 305 308 304 302 300 299 300 300 298 298 298 298 296 295 293 293 290 288 288 287 284 282 282 281 277 269 265 262 259 257 255
244 244 244 244 245 244 244 246 247 248 249 250 251 252 254 255 257 258 260 262 264 266 268 269 271 272 274 276 277 278 279 281 282 283 284 286 288 290 290 289 288 289 290 291 293 295 296 296 294 295 298 300 300 302 306 306 302 300 300 299 299 297 295 295 296 293 291 289 289 289 287 286 287 287 287 287 285 283 280 268 260 257 256 254 251
244 244 244 245 245 245 245 247 248 248 248 249 251 253 254 256 258 260 262 263 265 267 268 270 271 272 274 275 277 278 280 280 282 284 285 288 290 291 291 291 291 292 293 294 297 298 297 296 294 295 297 299 300 302 304 303 301 300 299 298 296 292 289 291 292 291 290 290 290 285 282 286 288 286 287 289 286 285 286 281 272 265 257 253 251
246 246 245 246 246 246 247 249 250 250 249 250 251 252 254 256 258 260 262 263 264 266 267 269 270 271 272 274 276 278 279 280 281 283 286 289 290 290 291 292 293 293 294 297 298 297 295 293 293 294 295 296 297 298 300 301 301 302 301 298 295 288 287 291 292 291 293 295 295 289 281 284 289 285 284 287 285 284 287 286 282 278 267 257 254
245 245 246 246 246 247 248 249 250 251 251 251 252 253 255 257 259 260 262 263 265 266 267 268 269 269 271 272 275 277 278 279 281 284 287 288 288 289 290 292 293 293 293 295 296 295 294 293 293 293 293 295 295 297 299 298 298 299 297 295 294 291 289 289 290 293 299 300 299 293 283 283 289 285 282 285 284 283 284 285 286 285 278 267 261
245 246 247 248 249 249 249 249 250 252 252 252 253 254 255 257 259 260 261 263 265 266 266 266 267 268 269 270 273 275 277 279 281 284 286 286 287 288 289 292 292 291 293 297 298 298 297 295 295 295 296 297 298 300 301 300 299 298 293 293 299 298 292 289 289 294 298 298 298 294 284 284 289 287 284 284 282 281 282 284 285 284 280 277 271
246 247 248 249 250 251 252 252 253 254 255 253 252 253 255 257 258 259 260 262 263 264 265 266 266 267 268 270 272 274 276 279 281 283 284 285 285 287 289 290 289 290 295 300 299 298 298 297 298 298 297 298 298 300 303 305 306 305 301 300 303 301 295 293 293 292 290 291 296 295 287 287 290 287 284 280 277 279 283 283 281 279 276 278 279